User: anonymous   Login
Location: Newark
(35.7219°N, 0.3536°E)
Time: 13:02:30
(UTC+00:00)
Language:

N. Korean satellite - Orbit

View from above orbital plane
View from above orbital plane
View from above satellite
View from above satellite

Ground track
Ground track

The orbit data is extracted from the following two-line orbital elements,

1 39026U 12072A   19234.76363447 +.00000627 +00000-0 +25266-4 0  9991
2 39026 097.2126 235.8118 0036547 228.2083 131.6033 15.27930376371479
Epoch (UTC): 22 August 2019 18:19:38
Eccentricity: 0.0036547
inclination: 97.2126°
perigee height: 457 km
apogee height: 507 km
right ascension of ascending node: 235.8118°
argument of perigee: 228.2083°
revolutions per day: 15.27930376
mean anomaly at epoch: 131.6033°
orbit number at epoch: 37147

The dashed part of the orbit path shows where the satellite is in the earth's shadow,  

DLR